Weather History for LIRA - March, 2013

Change the Weather History Date:

Wednesday, March 6, 2013

  Actual Average Record
Temperature  
Mean Temperature 55 °F -  
Max Temperature 60 °F 60 °F 71 °F (2002)
Min Temperature 50 °F 42 °F 37 °F (2005)
Degree Days  
Heating Degree Days 10    
Growing Degree Days 5 (Base 50)    
Moisture  
Dew Point 45 °F    
Average Humidity 71    
Maximum Humidity 94    
Minimum Humidity 39    
Precipitation  
Precipitation 0.00 in 0.09 in - ()
Sea Level Pressure  
Sea Level Pressure 29.75 in    
Wind  
Wind Speed 13 mph ()    
Max Wind Speed 32 mph    
Max Gust Speed 52 mph    
Visibility 4.1 miles    
Events Rain    
Averages and records for this station are not official NWS values.
T = Trace of Precipitation, MM = Missing Value Source: Averaged Metar Reports

Daily Weather History Graph

Daily Weather History Graph

Search for Another Location

Airport or City:

Trip Planner

Search our weather history database for the weather conditions in past years. The results will help you decide how hot, cold, wet, or windy it might be!

Date:

Astronomy

Mar. 06, 2013 Rise Set
Actual Time 6:36 AM CET 6:05 PM CET
Civil Twilight 6:08 AM CET 6:33 PM CET
Nautical Twilight 5:36 AM CET 7:05 PM CET
Astronomical Twilight 5:04 AM CET 7:38 PM CET
Moon 2:34 AM CET 12:25 PM CET
Length of Visible Light 12h 24m
Length of Day
11h 29m
Waning Crescent, 33% of the Moon is Illuminated
Mar 6
Waning Crescent
Mar 11
New
Mar 19
First Quarter
Mar 27
Full
Apr 3
Last Quarter

Hourly Weather History & Observations

Time (CET) Temp. Dew Point Humidity Pressure Visibility Wind Dir Wind Speed Gust Speed Precip Events Conditions
12:15 AM 51.8 °F 35.6 °F 54% 29.92 in 6.2 mi ENE 6.9 mph - N/A   Mostly Cloudy
12:45 AM 53.6 °F 35.6 °F 51% 29.89 in 6.2 mi ENE 8.1 mph - N/A   Mostly Cloudy
1:15 AM 53.6 °F 35.6 °F 51% 29.89 in 6.2 mi WSW 4.6 mph - N/A   Mostly Cloudy
1:45 AM 51.8 °F 37.4 °F 58% 29.89 in 6.2 mi NW 5.8 mph - N/A   Mostly Cloudy
2:15 AM 53.6 °F 33.8 °F 47% 29.86 in 6.2 mi West 3.5 mph - N/A   Mostly Cloudy
2:45 AM 53.6 °F 35.6 °F 51% 29.86 in 6.2 mi WNW 3.5 mph - N/A   Mostly Cloudy
3:15 AM 51.8 °F 37.4 °F 58% 29.86 in 6.2 mi West 5.8 mph - N/A   Mostly Cloudy
3:45 AM 51.8 °F 37.4 °F 58% 29.86 in 6.2 mi West 1.2 mph - N/A   Mostly Cloudy
4:15 AM 50.0 °F 39.2 °F 66% 29.86 in 6.2 mi NE 1.2 mph - N/A   Mostly Cloudy
4:45 AM 50.0 °F 39.2 °F 66% 29.86 in 6.2 mi East 3.5 mph - N/A   Mostly Cloudy
5:15 AM 51.8 °F 37.4 °F 58% 29.80 in 6.2 mi NE 8.1 mph - N/A   Scattered Clouds
5:45 AM 51.8 °F 39.2 °F 62% 29.80 in 6.2 mi WNW 4.6 mph - N/A   Scattered Clouds
6:15 AM 53.6 °F 41.0 °F 62% 29.77 in 6.2 mi NW 4.6 mph - N/A   Scattered Clouds
6:45 AM 53.6 °F 37.4 °F 54% 29.77 in 6.2 mi WSW 5.8 mph - N/A   Mostly Cloudy
7:15 AM 57.2 °F 35.6 °F 44% 29.77 in 6.2 mi SE 8.1 mph 19.6 mph N/A   Scattered Clouds
7:45 AM 59.0 °F 33.8 °F 39% 29.77 in 6.2 mi SE 17.3 mph 31.1 mph N/A   Mostly Cloudy
8:15 AM 59.0 °F 33.8 °F 39% 29.77 in 6.2 mi SE 20.7 mph 41.4 mph N/A   Mostly Cloudy
8:45 AM 60.8 °F 37.4 °F 42% 29.77 in 6.2 mi SE 29.9 mph 47.2 mph N/A Rain Light Rain
9:15 AM 59.0 °F 39.2 °F 48% 29.77 in 6.2 mi SE 32.2 mph 48.3 mph N/A   Mostly Cloudy
9:45 AM 59.0 °F 39.2 °F 48% 29.77 in 6.2 mi SE 32.2 mph 51.8 mph N/A   Mostly Cloudy
10:15 AM 59.0 °F 41.0 °F 51% 29.77 in 6.2 mi SE 27.6 mph 41.4 mph N/A   Mostly Cloudy
10:45 AM 60.8 °F 41.0 °F 48% 29.74 in 6.2 mi SE 25.3 mph 42.6 mph N/A   Mostly Cloudy
11:15 AM 59.0 °F 42.8 °F 55% 29.74 in 5.0 mi SE 27.6 mph 43.7 mph N/A Rain Light Rain
11:45 AM 57.2 °F 42.8 °F 59% 29.74 in 4.3 mi SE 28.8 mph 42.6 mph N/A Rain Light Rain
12:15 PM 55.4 °F 48.2 °F 77% 29.74 in 3.1 mi SE 20.7 mph 33.4 mph N/A Rain Light Rain
12:45 PM 55.4 °F 50.0 °F 82% 29.74 in 3.1 mi SE 23.0 mph 38.0 mph N/A Rain Light Rain
1:15 PM 55.4 °F 51.8 °F 88% 29.71 in 2.5 mi SE 21.9 mph 38.0 mph N/A Rain Light Rain
1:45 PM 55.4 °F 51.8 °F 88% 29.71 in 2.5 mi SE 26.5 mph 40.3 mph N/A Rain Light Rain
2:15 PM 55.4 °F 51.8 °F 88% 29.68 in 1.9 mi SE 29.9 mph 43.7 mph N/A Rain Rain
2:45 PM 55.4 °F 51.8 °F 88% 29.68 in 1.9 mi SE 28.8 mph 47.2 mph N/A Rain Rain
3:15 PM 55.4 °F 51.8 °F 88% 29.65 in 1.9 mi SE 28.8 mph 43.7 mph N/A Rain Rain
3:45 PM 55.4 °F 51.8 °F 88% 29.65 in 1.6 mi SE 29.9 mph 44.9 mph N/A Rain Rain
4:15 PM 55.4 °F 51.8 °F 88% 29.65 in 1.9 mi SE 28.8 mph 43.7 mph N/A Rain Rain
4:45 PM 53.6 °F 50.0 °F 88% 29.65 in 1.9 mi SE 26.5 mph 39.1 mph N/A Rain Rain
5:15 PM 55.4 °F 51.8 °F 88% 29.65 in 1.9 mi SE 25.3 mph - N/A Rain Rain
5:45 PM 55.4 °F 51.8 °F 88% 29.65 in 1.9 mi SE 23.0 mph - N/A Rain Light Rain
6:15 PM 55.4 °F 51.8 °F 88% 29.65 in 1.2 mi SSE 19.6 mph - N/A Rain Rain
6:45 PM 55.4 °F 51.8 °F 88% 29.68 in 1.9 mi SSE 17.3 mph - N/A Rain Rain
7:15 PM 55.4 °F 51.8 °F 88% 29.68 in 1.9 mi SSE 19.6 mph - N/A Rain Rain
7:45 PM 55.4 °F 51.8 °F 88% 29.68 in 1.9 mi SSE 20.7 mph - N/A Rain Rain
8:15 PM 53.6 °F 51.8 °F 94% 29.68 in 1.9 mi SSE 16.1 mph - N/A Rain Rain
8:45 PM 55.4 °F 51.8 °F 88% 29.68 in 2.5 mi SSE 16.1 mph - N/A Rain Rain
9:15 PM 55.4 °F 51.8 °F 88% 29.68 in 1.9 mi SSE 17.3 mph - N/A Rain Rain
9:45 PM 55.4 °F 51.8 °F 88% 29.68 in 1.9 mi South 15.0 mph - N/A Rain Rain
10:15 PM 53.6 °F 50.0 °F 88% 29.71 in 1.9 mi South 12.7 mph - N/A Rain Rain
10:45 PM 53.6 °F 51.8 °F 94% 29.71 in 1.9 mi South 11.5 mph - N/A Rain Rain
11:15 PM 53.6 °F 51.8 °F 94% 29.71 in 2.8 mi South 9.2 mph - N/A Rain Rain
11:45 PM 55.4 °F 53.6 °F 94% 29.71 in 3.1 mi SSE 10.4 mph - N/A   Drizzle